Find Starlink 32206

NORAD ID: 60273 Int'l Des: 2024-131 Owner: SPXS Country: US Constellation: starlink operational
LEOCIRCULAR

Current View

Loading 3D Globe...

About Starlink 32206

Starlink 32206 (NORAD 60273) is a starlink constellation satellite (v2 mini) launched Jul 27, 2024 by SPXS of US. It operates in LEO, CIRCULAR orbit with a mass of 730.00 kg.

Upcoming Passes

Passes for default location (London). Set your location on the main map for personalized predictions.

Altitude History

Loading altitude history...

Two-Line Element Set

1 60273U 24131U 26236.30196531 -.00002352 00000-0 -58543-4 0 9999
2 60273 53.1623 352.9931 0000846 99.5999 260.5099 15.34379972117392
Epoch: Aug 24, 2026 • Age: 30 hours

Current Status

Altitude 468.3 km
Apogee / Perigee N/A
Velocity 7.64 km/s
Sub-Earth Point 51.30°N, 76.11°W
Launch Date Jul 27, 2024
Age 2 years
Type internet

Technical Details

Classification Payload
Mass 730.00 kg
Dry Mass 700.00 kg
Total Mass 730.00 kg
Length 0.30 m
Diameter 4.10 m
Span 29.00 m
Shape Box + pan
Manufacturer SPXS
Bus Type Starlink V2M
Phase Status In Orbit
Owner/State SPXS/US

Most Searched